Temperature
4 5 5 5 5 4 4 3 4 4 4 6 7 7 8 8 6 5 4 3 3 3 4 4 5 5 5 5 6 6 6 7 7 8 8 7 7 7 7 7 7 7 7 6
4 5 4 4 4 4 4 5 5 5 6 7 8 8 8 7 4 3 2 2 2 2 3 3 3 3 4 4 4 5 5 5 5 6 6 6 6 6 6 5 5 5 4 3
4 5 5 4 5 5 5 5 6 6 7 7 7 7 7 5 3 2 1 1 1 1 2 2 2 2 2 3 3 3 3 3 4 4 4 4 4 4 3 3 3 2 1 1
5 5 5 7 7 6 6 6 6 6 7 7 7 7 6 4 3 2 1 0 0 1 1 1 1 1 1 2 2 2 2 2 2 2 2 2 2 1 1 1 0 0 0 0
5 6 5 7 7 6 6 7 7 7 7 7 7 6 4 4 3 1 1 0 0 0 0 0 0 0 0 1 1 0 0 0 0 0 1 0 0 -0 -0 -0 -0 -0 -0 0
6 6 6 8 9 8 8 8 9 7 7 7 6 5 5 4 3 2 1 1 0 0 0 0 0 -0 0 -0 -0 -0 -1 -1 -0 -0 -0 -0 -0 -0 -1 -0 -0 -0 -0 -0
6 6 6 7 8 8 8 9 9 8 7 7 5 5 5 4 3 2 1 1 1 1 1 0 0 -0 0 -0 -0 -0 -0 -0 -0 -0 -0 -0 -0 -0 -0 -0 -0 -0 -1 -1
6 6 6 8 7 8 9 9 9 8 7 6 6 5 5 4 3 3 2 2 2 2 1 1 1 1 1 0 0 0 0 0 0 0 -0 -0 -0 -0 -1 -1 -1 -1 -1 -2
6 7 8 9 9 10 10 9 9 8 7 6 6 5 5 4 4 3 3 3 2 2 2 2 1 1 1 1 1 1 1 1 0 0 -0 -0 -0 -1 -1 -1 -1 -2 -2 -3
5 5 7 9 9 10 10 9 9 8 7 6 6 5 5 4 4 3 3 3 3 3 3 2 2 2 1 1 1 1 1 0 0 -0 -0 -1 -1 -1 -2 -2 -2 -2 -3 -3
5 6 7 9 9 9 9 9 9 8 8 7 6 5 5 5 4 4 3 3 3 3 3 2 2 2 1 1 0 1 0 0 -0 -1 -1 -1 -1 -2 -2 -2 -3 -3 -3 -4
5 6 6 7 8 8 8 9 8 8 8 7 6 5 5 5 4 4 4 3 3 3 3 2 2 1 1 0 -0 -0 0 -0 -1 -1 -2 -2 -2 -2 -3 -3 -3 -4 -4 -5
5 6 6 7 8 8 8 8 8 7 7 6 5 5 4 4 4 4 3 3 3 3 2 2 2 1 1 -0 -0 -1 -1 -1 -1 -2 -2 -2 -2 -3 -3 -4 -4 -5 -5 -6
4 5 6 6 6 7 7 7 7 7 6 5 5 4 3 3 3 3 3 3 3 2 2 2 1 1 0 -0 -1 -1 -1 -1 -2 -2 -2 -2 -3 -3 -4 -4 -5 -5 -6 -6
4 4 4 5 5 6 6 6 6 6 5 5 4 3 3 3 3 3 2 2 2 2 2 1 1 0 0 -0 -1 -1 -1 -2 -2 -2 -2 -3 -3 -4 -4 -5 -5 -6 -6 -7
3 3 3 3 4 4 5 5 5 5 5 4 3 3 2 2 2 2 2 2 2 2 2 1 1 0 -0 -0 -1 -1 -2 -2 -2 -2 -3 -3 -4 -4 -5 -5 -6 -7 -7 -8
1 1 1 2 2 3 3 4 4 4 4 4 3 2 2 1 1 1 1 2 2 1 1 1 0 -0 -0 -1 -1 -1 -2 -2 -3 -3 -3 -4 -4 -5 -6 -6 -7 -8 -8 -9
-0 -0 -0 0 1 2 3 3 4 4 4 3 3 2 2 2 2 2 2 1 1 1 1 0 -0 -1 -1 -1 -1 -2 -2 -2 -3 -3 -4 -4 -5 -6 -6 -7 -8 -8 -9 -9
-0 -0 -0 0 1 2 3 3 4 4 4 3 3 3 2 2 1 1 1 2 2 1 1 0 -0 -1 -1 -1 -2 -2 -2 -3 -3 -4 -5 -5 -6 -7 -7 -8 -8 -9 -9 -10
0 0 0 1 1 2 3 3 4 4 3 3 2 2 2 2 2 2 2 2 2 1 0 -0 -1 -1 -1 -2 -2 -2 -3 -3 -4 -4 -5 -6 -7 -7 -8 -8 -9 -9 -10 -10
0 1 1 1 2 2 2 3 3 3 3 2 2 2 2 2 2 2 2 2 1 1 -0 -1 -1 -1 -2 -2 -2 -3 -3 -4 -4 -5 -6 -6 -7 -8 -8 -9 -9 -9 -10 -10
1 1 1 1 1 2 2 2 2 2 1 1 1 1 2 2 2 2 2 2 1 1 -0 -1 -1 -2 -2 -2 -3 -3 -4 -4 -5 -5 -6 -7 -7 -8 -8 -9 -9 -9 -10 -10
0 0 0 0 0 0 1 1 1 1 0 0 1 1 1 2 2 2 2 2 1 0 -0 -1 -2 -2 -2 -3 -3 -4 -4 -5 -5 -6 -6 -7 -8 -8 -8 -9 -9 -9 -9 -9
0 -0 -0 -0 -0 -0 0 -0 -0 -0 -0 -0 0 0 1 1 1 1 1 1 0 -0 -1 -1 -2 -2 -3 -3 -4 -4 -4 -5 -5 -6 -7 -7 -8 -8 -8 -9 -9 -9 -9 -9
-1 -1 -1 -1 -1 -1 -1 -1 -1 -1 -1 -1 -0 -0 -0 0 0 1 0 0 -0 -1 -1 -2 -2 -3 -3 -3 -4 -4 -5 -5 -6 -6 -7 -7 -8 -8 -8 -8 -8 -8 -9 -9
-1 -1 -2 -2 -2 -2 -2 -2 -2 -2 -2 -1 -1 -1 -1 -1 -0 -0 -1 -1 -1 -1 -2 -2 -2 -3 -3 -4 -4 -4 -5 -5 -6 -6 -7 -7 -7 -8 -8 -8 -8 -8 -8 -8
-2 -2 -2 -2 -2 -2 -2 -2 -3 -3 -3 -2 -2 -2 -2 -2 -1 -1 -1 -1 -2 -2 -2 -2 -3 -3 -4 -4 -4 -5 -5 -6 -6 -6 -7 -7 -7 -7 -8 -8 -8 -8 -8 -8
Wind_Speed
3 2 4 5 6 9 9 9 8 8 8 15 15 14 13 9 7 9 10 11 11 12 11 11 11 11 10 10 9 7 7 6 6 6 7 8 10 11 12 12 13 14 15 14
2 2 4 6 9 10 10 9 11 11 14 16 12 8 8 6 7 8 10 10 11 11 11 10 10 10 10 10 9 8 9 9 8 10 11 12 12 13 14 14 14 15 15 15
2 3 2 7 10 14 8 8 9 12 12 11 11 10 7 5 5 7 8 9 9 9 9 9 9 9 9 9 9 10 11 11 11 12 13 13 14 15 15 14 15 15 14 15
1 2 5 6 3 9 8 8 11 11 12 11 10 7 1 1 3 6 7 7 7 7 7 7 7 8 8 8 9 10 10 10 11 11 13 13 14 14 14 13 13 13 13 14
1 3 6 8 3 7 7 6 8 12 15 11 6 4 1 2 2 3 4 4 4 5 6 6 7 7 7 8 9 9 9 9 10 10 11 12 13 13 12 12 12 11 11 11
3 3 4 4 1 4 4 3 4 6 9 7 2 3 2 2 1 2 3 3 4 5 6 7 7 7 7 8 9 9 9 9 9 10 11 11 12 11 10 10 11 10 10 9
5 4 7 7 3 4 2 3 3 4 6 5 4 4 3 4 2 2 2 3 4 5 6 6 6 7 8 8 9 8 8 9 10 10 10 11 11 10 10 10 10 10 9 8
6 6 8 4 5 5 4 3 3 3 4 4 4 4 5 4 3 3 3 4 5 5 6 6 6 7 8 8 7 8 9 10 11 10 9 9 10 10 9 9 9 8 8 7
7 8 5 3 5 5 3 4 4 3 4 3 4 6 6 5 4 3 3 4 4 5 6 6 7 6 8 6 7 8 10 10 10 10 9 8 8 8 7 6 6 6 5 5
5 8 7 8 7 6 5 6 5 4 4 5 6 7 7 6 5 5 4 4 4 5 6 6 6 6 6 6 7 9 10 9 8 8 8 7 6 6 6 5 5 5 4 4
5 6 6 5 3 4 3 4 4 4 4 6 7 7 8 7 7 6 5 4 4 5 6 5 5 6 6 6 7 9 8 7 7 7 7 7 7 5 5 3 4 5 3 3
5 3 3 6 6 4 5 6 6 5 4 4 7 8 8 7 7 7 6 5 6 6 6 6 6 6 5 5 6 8 7 6 5 5 5 5 5 5 8 7 8 7 4 3
3 3 5 8 7 4 5 6 5 6 6 5 5 7 8 7 7 8 7 7 7 7 7 6 6 6 5 5 6 7 7 6 4 4 4 4 4 4 3 5 8 8 7 6
2 4 5 5 6 8 6 4 2 2 3 4 5 6 7 7 8 9 8 8 7 7 7 6 6 5 4 6 7 7 6 6 5 4 4 3 3 3 2 2 2 3 5 7
3 5 7 9 9 7 3 1 2 2 2 3 5 7 8 9 9 8 8 9 9 8 7 7 7 5 4 6 7 7 6 4 4 4 3 3 3 3 3 3 2 2 3 4
9 8 7 7 7 6 4 4 5 5 5 5 6 7 7 8 8 8 9 9 9 9 8 8 7 6 6 6 7 6 5 7 6 4 3 3 3 2 2 2 2 2 3 3
6 7 6 7 9 8 7 7 7 7 6 7 7 7 8 8 8 8 8 7 7 7 7 7 7 6 6 7 7 5 4 5 6 4 3 3 2 1 1 1 2 3 3 5
6 8 9 11 11 11 10 8 7 7 7 8 8 9 9 10 10 9 8 8 8 6 6 6 7 7 6 6 6 5 5 4 3 3 2 1 1 0 1 1 2 3 3 4
6 7 8 9 10 9 9 8 7 6 7 9 10 10 9 8 9 9 9 9 9 8 7 7 11 8 7 7 7 5 5 4 3 2 2 1 1 0 1 2 3 4 4 4
7 8 9 9 8 6 6 4 3 5 7 9 9 9 9 9 9 10 10 8 6 5 8 9 9 7 7 7 8 5 5 4 4 2 2 1 1 2 2 3 4 4 4 5
8 9 10 10 9 8 6 3 2 5 6 8 9 9 9 9 10 9 9 7 5 7 9 12 7 6 6 7 7 5 4 4 3 3 2 2 2 3 3 4 4 5 5 5
7 8 9 9 9 8 7 4 1 3 5 6 6 7 9 9 9 8 6 5 7 12 9 7 6 8 10 9 5 5 4 4 3 3 3 3 3 3 4 4 5 5 5 6
6 7 8 8 8 7 6 5 3 1 3 5 7 8 8 8 8 7 7 5 7 13 9 7 9 13 13 7 5 5 5 4 4 3 3 3 4 4 4 5 5 5 6 6
6 7 7 7 6 6 6 6 4 1 1 3 4 6 7 6 5 4 3 10 14 14 8 10 15 14 12 5 5 5 5 4 4 4 4 4 4 4 5 5 6 6 6 7
5 6 6 7 7 6 6 5 4 2 1 1 2 4 4 4 5 6 6 9 14 14 7 11 15 14 8 5 5 5 5 5 5 4 4 4 4 5 5 5 6 6 6 7
5 5 5 5 4 4 4 4 3 2 1 1 1 2 3 3 4 6 6 8 10 12 8 6 8 9 6 6 5 5 5 4 4 4 4 4 5 5 6 6 7 7 7 7
4 4 4 4 4 4 4 4 3 3 3 2 2 2 3 4 4 5 6 7 7 7 6 6 6 7 6 5 5 5 4 4 4 4 4 5 5 5 6 7 6 6 6 7
Wind_Direction
227 245 180 200 192 186 195 195 206 239 248 275 288 294 301 311 332 335 338 342 341 339 341 347 351 353 352 352 357 9 25 34 43 65 82 91 97 103 107 110 113 115 114 113
312 281 218 233 222 205 212 219 237 261 278 273 279 292 298 320 337 333 337 338 340 344 350 353 355 356 2 7 11 29 47 50 56 70 78 84 90 95 97 99 103 106 109 110
288 284 295 258 224 202 199 205 206 236 249 273 292 298 308 326 335 330 331 336 343 346 350 355 -0 6 13 18 27 43 53 57 62 74 80 84 89 92 94 97 99 100 103 104
265 342 260 245 209 181 198 227 216 235 257 272 279 297 314 81 330 330 334 342 347 347 356 5 11 18 25 34 43 51 58 63 70 78 84 87 90 92 95 96 97 99 100 102
219 274 282 292 227 168 183 255 225 232 257 272 299 324 304 91 29 342 339 350 353 356 6 14 21 26 37 45 50 55 59 66 73 83 88 90 91 92 94 97 96 95 97 99
209 250 259 260 300 166 137 273 245 217 254 275 322 308 275 130 68 21 12 14 16 13 21 27 28 34 47 49 52 54 59 66 72 79 84 86 87 88 89 91 92 91 88 89
221 243 266 252 232 142 168 237 281 243 258 257 220 220 146 135 117 79 45 42 41 36 33 30 34 47 55 52 49 52 62 69 72 74 79 82 83 83 87 89 90 90 90 82
192 215 251 236 148 178 226 263 278 267 257 244 214 146 140 142 132 111 80 62 56 53 43 37 42 58 64 55 53 62 68 69 67 68 72 78 83 82 85 94 97 96 92 79
201 219 239 216 216 241 222 255 261 244 247 220 192 179 166 157 146 129 107 86 75 74 63 49 47 61 71 60 65 74 74 72 72 71 68 72 82 87 82 81 90 90 89 84
241 259 259 264 267 266 234 232 242 236 236 200 196 181 168 160 155 143 126 105 95 90 81 66 58 65 71 75 79 83 80 74 72 74 70 62 66 73 81 84 88 92 95 94
242 275 303 297 270 268 260 241 243 239 216 206 192 182 171 165 160 151 139 124 113 110 104 95 83 75 72 81 93 91 84 79 75 74 76 71 70 75 87 88 114 114 116 127
225 244 248 277 294 299 275 264 248 230 221 202 193 181 166 161 156 150 144 136 127 123 120 113 103 92 84 91 102 104 95 85 82 81 80 81 81 73 79 90 88 99 132 152
268 302 259 267 288 299 283 270 248 219 213 204 192 175 159 152 151 147 145 145 143 139 134 127 117 106 102 106 105 104 108 104 94 94 93 93 92 95 78 59 62 56 47 36
3 350 310 315 312 312 292 281 232 204 199 188 171 158 149 142 146 151 155 151 143 138 136 133 125 119 122 119 113 108 105 107 105 98 97 95 95 92 91 79 33 3 9 11
22 340 284 288 294 295 293 254 220 216 187 166 160 159 156 156 160 158 150 145 141 140 142 141 138 140 139 129 120 116 111 108 106 105 103 100 96 91 81 72 52 358 344 350
312 302 291 293 299 301 286 259 247 238 206 188 176 172 165 157 150 147 149 151 155 161 162 157 156 156 146 132 122 117 123 134 129 121 111 100 91 86 71 45 13 345 333 320
310 314 319 312 309 301 281 256 244 234 208 194 184 164 150 144 144 149 153 155 153 155 158 158 154 148 141 137 132 130 126 133 128 114 105 103 94 79 46 343 316 309 301 304
273 280 284 286 288 289 284 265 243 222 204 188 164 157 161 165 168 163 153 140 132 132 145 148 145 141 139 138 134 131 126 121 118 116 111 120 121 86 328 307 302 301 298 305
306 303 302 298 291 282 277 267 243 212 183 166 166 172 173 170 163 156 152 154 158 163 170 163 157 147 141 147 136 124 125 125 120 117 115 134 105 329 298 294 291 290 291 292
335 331 328 324 323 313 300 285 221 178 166 163 164 166 167 164 158 159 163 172 179 172 160 161 151 144 142 145 136 127 132 137 143 148 156 182 244 274 282 285 285 285 284 285
346 345 347 347 344 346 345 338 166 162 161 164 170 175 171 163 162 163 169 180 174 154 159 162 152 147 146 149 139 132 138 146 158 174 197 225 252 269 276 280 284 287 288 289
351 350 351 351 352 353 354 1 64 147 159 166 165 161 161 165 169 174 184 176 163 168 162 157 153 161 163 149 134 142 148 158 172 189 211 232 249 265 273 278 280 285 285 286
353 350 351 351 346 342 354 12 28 137 176 181 180 178 178 177 176 176 188 172 161 171 165 164 170 171 165 147 145 151 160 174 191 211 225 236 249 260 270 277 278 280 283 286
354 353 348 344 348 360 1 355 351 335 214 192 190 182 174 172 180 182 149 168 175 173 168 175 176 175 163 143 151 160 174 189 205 219 234 247 256 263 268 273 278 281 280 283
347 343 348 355 0 354 341 337 345 352 351 193 185 181 179 176 176 171 159 169 176 169 165 180 181 174 154 149 163 173 185 201 211 218 229 245 257 264 268 271 273 279 282 281
346 342 338 334 332 328 330 330 327 320 305 266 220 183 167 152 149 156 162 169 173 170 165 166 166 161 149 160 170 181 194 218 243 243 238 250 260 266 270 274 277 277 278 278
335 334 332 335 336 336 330 321 309 297 278 247 234 197 173 160 158 164 165 165 163 158 155 151 144 144 153 162 174 186 199 213 227 239 247 252 258 263 270 274 277 278 280 280
Height
1484 1483 1484 1484 1485 1489 1491 1493 1495 1487 1482 1467 1461 1459 1456 1453 1451 1448 1445 1442 1438 1435 1431 1427 1423 1419 1416 1413 1410 1408 1406 1406 1405 1406 1407 1408 1410 1411 1414 1416 1419 1423 1426 1430
1484 1481 1483 1484 1481 1483 1484 1484 1483 1480 1474 1459 1456 1455 1453 1451 1449 1447 1444 1441 1438 1434 1430 1426 1423 1419 1416 1413 1409 1407 1405 1404 1404 1404 1405 1406 1407 1409 1411 1414 1417 1421 1424 1428
1485 1481 1479 1480 1471 1473 1475 1473 1473 1473 1466 1456 1455 1453 1451 1449 1448 1446 1443 1440 1437 1434 1430 1427 1424 1420 1417 1414 1411 1408 1406 1405 1404 1404 1405 1405 1407 1409 1411 1414 1417 1421 1426 1430
1480 1479 1482 1467 1459 1462 1465 1463 1463 1461 1457 1454 1453 1451 1449 1448 1447 1444 1442 1440 1437 1434 1431 1428 1425 1422 1419 1416 1413 1410 1408 1407 1407 1407 1407 1408 1409 1411 1414 1417 1421 1425 1429 1434
1477 1476 1472 1462 1456 1459 1461 1459 1456 1457 1454 1451 1450 1449 1447 1447 1445 1444 1442 1439 1437 1434 1432 1429 1426 1423 1421 1418 1416 1414 1412 1411 1411 1411 1411 1412 1414 1416 1419 1422 1425 1429 1433 1437
1474 1474 1471 1459 1453 1452 1456 1456 1451 1451 1450 1449 1449 1450 1448 1446 1445 1443 1441 1439 1437 1435 1433 1430 1428 1426 1424 1422 1420 1418 1417 1417 1417 1417 1417 1418 1420 1422 1425 1428 1431 1434 1437 1439
1470 1470 1465 1454 1451 1453 1458 1455 1449 1448 1447 1446 1446 1447 1446 1445 1444 1443 1441 1440 1438 1436 1434 1433 1431 1430 1428 1426 1425 1424 1424 1423 1423 1424 1424 1426 1427 1429 1432 1434 1435 1438 1439 1441
1465 1467 1464 1449 1450 1452 1450 1447 1446 1445 1444 1443 1443 1443 1443 1444 1443 1443 1442 1441 1439 1438 1437 1436 1435 1434 1433 1431 1431 1431 1431 1430 1430 1431 1432 1433 1434 1435 1437 1439 1440 1441 1442 1443
1457 1455 1447 1446 1446 1446 1445 1444 1443 1442 1441 1440 1440 1440 1441 1442 1442 1442 1442 1441 1441 1440 1440 1439 1439 1438 1437 1437 1437 1437 1437 1437 1437 1437 1438 1439 1440 1441 1442 1443 1444 1444 1445 1445
1452 1447 1444 1444 1443 1442 1442 1441 1441 1439 1438 1437 1437 1438 1439 1440 1441 1442 1442 1442 1442 1442 1442 1442 1442 1442 1442 1442 1442 1442 1442 1442 1442 1443 1443 1444 1444 1445 1445 1446 1446 1446 1446 1445
1447 1444 1442 1440 1440 1440 1440 1439 1438 1437 1436 1435 1435 1435 1436 1437 1439 1440 1442 1442 1443 1444 1444 1445 1445 1445 1446 1446 1447 1447 1446 1446 1446 1447 1447 1447 1447 1447 1447 1447 1447 1447 1446 1445
1444 1441 1442 1439 1438 1438 1437 1436 1435 1434 1432 1432 1432 1432 1433 1435 1437 1439 1440 1442 1443 1444 1445 1446 1447 1448 1448 1449 1449 1450 1449 1449 1449 1449 1449 1449 1449 1448 1448 1447 1446 1445 1444 1443
1440 1438 1438 1436 1435 1434 1433 1432 1431 1430 1429 1429 1429 1429 1430 1432 1434 1437 1439 1441 1442 1444 1446 1447 1448 1449 1450 1450 1451 1451 1451 1451 1451 1451 1450 1450 1449 1449 1448 1447 1446 1444 1443 1441
1436 1435 1434 1432 1432 1430 1429 1428 1427 1426 1426 1425 1426 1426 1428 1429 1432 1434 1437 1439 1441 1443 1445 1447 1449 1450 1450 1451 1452 1452 1452 1452 1452 1451 1451 1450 1449 1448 1447 1446 1445 1443 1441 1440
1433 1432 1431 1429 1427 1426 1425 1424 1424 1423 1423 1422 1423 1424 1425 1427 1429 1432 1434 1437 1439 1442 1444 1446 1448 1449 1450 1451 1452 1452 1452 1452 1452 1451 1451 1450 1449 1447 1446 1444 1443 1441 1439 1437
1428 1427 1426 1425 1423 1422 1421 1421 1420 1420 1420 1420 1420 1421 1423 1425 1427 1430 1432 1435 1437 1440 1443 1445 1447 1449 1450 1451 1451 1452 1452 1452 1451 1451 1450 1449 1448 1446 1444 1443 1441 1439 1437 1435
1424 1422 1421 1419 1418 1417 1417 1417 1416 1416 1416 1417 1417 1419 1420 1422 1424 1427 1429 1432 1436 1439 1442 1444 1446 1448 1449 1450 1451 1451 1451 1451 1450 1450 1449 1447 1446 1444 1442 1440 1438 1436 1434 1432
1421 1420 1418 1416 1414 1413 1412 1412 1412 1412 1412 1413 1414 1416 1417 1419 1421 1424 1427 1430 1433 1437 1440 1443 1445 1447 1448 1449 1450 1450 1450 1450 1449 1448 1447 1446 1444 1442 1440 1438 1436 1434 1431 1430
1418 1416 1414 1413 1411 1409 1408 1407 1407 1408 1408 1409 1411 1412 1414 1416 1419 1422 1425 1428 1431 1435 1438 1441 1443 1445 1446 1448 1448 1449 1449 1448 1447 1446 1445 1443 1441 1439 1437 1435 1433 1431 1429 1427
1416 1414 1411 1409 1408 1406 1404 1404 1404 1404 1405 1406 1407 1409 1411 1414 1417 1420 1423 1426 1430 1434 1437 1439 1441 1443 1445 1446 1446 1447 1446 1446 1445 1444 1442 1441 1439 1437 1435 1432 1430 1428 1426 1424
1414 1412 1409 1407 1405 1404 1402 1401 1401 1401 1402 1403 1405 1406 1409 1411 1414 1417 1421 1424 1428 1431 1434 1437 1439 1441 1442 1443 1444 1444 1444 1443 1443 1441 1440 1438 1436 1434 1432 1430 1427 1425 1423 1421
1412 1411 1408 1407 1405 1403 1402 1400 1400 1400 1401 1401 1403 1404 1406 1409 1412 1416 1419 1423 1427 1429 1432 1434 1437 1438 1440 1441 1441 1442 1441 1441 1440 1439 1437 1435 1434 1432 1429 1427 1425 1423 1420 1418
1412 1410 1408 1406 1404 1403 1401 1400 1399 1399 1399 1400 1401 1402 1405 1407 1411 1414 1416 1421 1423 1426 1429 1432 1434 1436 1437 1438 1439 1439 1439 1438 1437 1436 1434 1433 1431 1429 1427 1425 1422 1420 1418 1415
1411 1410 1408 1406 1404 1403 1401 1400 1399 1398 1398 1398 1399 1401 1403 1406 1408 1412 1415 1418 1421 1423 1426 1429 1431 1433 1434 1435 1436 1436 1436 1435 1434 1433 1432 1430 1428 1427 1424 1422 1420 1418 1415 1413
1411 1409 1407 1405 1403 1401 1400 1399 1398 1397 1397 1397 1398 1399 1401 1403 1406 1409 1412 1415 1417 1420 1423 1426 1428 1429 1431 1432 1433 1433 1433 1432 1432 1430 1429 1428 1426 1424 1422 1420 1417 1415 1413 1410
1409 1408 1406 1404 1402 1401 1399 1398 1397 1396 1396 1396 1396 1397 1398 1400 1402 1405 1408 1411 1414 1417 1420 1422 1424 1426 1428 1429 1430 1430 1430 1429 1429 1428 1426 1425 1423 1421 1419 1417 1415 1413 1410 1408
1408 1406 1405 1403 1401 1400 1398 1397 1396 1395 1394 1394 1394 1395 1396 1397 1399 1401 1404 1407 1410 1413 1416 1419 1421 1423 1425 1426 1427 1427 1427 1426 1426 1425 1424 1422 1421 1419 1417 1415 1412 1410 1408 1406